WGT,Max TemperatureF,Mean TemperatureF,Min TemperatureF,Max Dew PointF,MeanDew PointF,Min DewpointF,Max Humidity, Mean Humidity, Min Humidity, Max Sea Level PressureIn, Mean Sea Level PressureIn, Min Sea Level PressureIn, Max VisibilityMiles, Mean VisibilityMiles, Min VisibilityMiles, Max Wind SpeedMPH, Mean Wind SpeedMPH, Max Gust SpeedMPH,PrecipitationIn, CloudCover, Events, WindDirDegrees
2013-10-1,32,30,28,28,28,27,93,89,86,29.68,29.59,29.53,6,6,6,10,5,,0.00,5,,243
2013-10-2,38,35,32,30,27,21,93,76,40,29.74,29.65,29.47,19,7,6,37,19,47,0.00,6,Rain-Snow,132
2013-10-3,36,34,32,30,26,19,93,74,41,29.90,29.83,29.74,19,6,3,13,5,,0.00,7,Rain-Snow,106
2013-10-4,34,33,32,27,24,20,80,69,44,29.89,29.85,29.80,6,6,6,8,4,,0.00,6,Snow,303
2013-10-5,33,32,30,28,25,21,93,77,53,29.81,29.80,29.77,12,6,2,14,6,,0.00,6,Rain-Snow,58
2013-10-6,32,30,29,25,20,16,80,65,40,29.80,29.77,29.74,19,6,6,8,3,,0.00,7,Rain-Snow,329
2013-10-7,28,26,24,21,18,12,80,66,41,29.96,29.87,29.77,12,6,6,13,8,,0.00,6,Snow,350
2013-10-8,30,26,23,18,13,8,64,56,29,30.32,30.11,29.92,6,6,6,13,8,,0.00,2,,354
2013-10-9,33,30,26,32,27,18,100,87,55,30.31,30.15,29.92,10,5,1,18,7,,0.00,7,Rain-Snow,62
2013-10-10,39,36,32,37,34,31,100,90,80,29.92,29.60,29.50,17,6,2,38,17,50,0.00,8,Rain-Snow,68
2013-10-11,42,40,37,39,38,34,93,87,78,29.53,29.43,29.36,6,3,1,43,36,75,0.00,7,Rain,77
2013-10-12,44,38,33,41,36,32,100,91,72,30.25,29.88,29.42,19,5,0,46,27,69,0.00,6,Fog-Rain,100
2013-10-13,43,36,28,39,32,28,100,85,54,30.25,30.22,30.21,15,5,0,18,4,,0.00,7,Fog-Rain,248
2013-10-14,47,40,33,37,34,30,93,79,53,30.36,30.29,30.21,19,7,6,22,11,,0.00,6,Rain,72
2013-10-15,33,31,30,32,31,28,100,94,79,30.28,30.16,30.09,17,4,0,7,3,,0.00,4,Fog,236
2013-10-16,35,32,30,30,28,25,93,85,68,30.25,30.18,30.15,19,7,6,14,5,,0.00,4,Fog,64
2013-10-17,31,30,28,27,26,24,93,84,67,30.25,30.15,30.06,19,6,3,22,6,,0.00,6,Snow,221
2013-10-18,30,29,28,25,24,22,86,78,64,30.30,30.23,30.15,6,6,6,15,9,,0.00,6,,53
2013-10-19,27,26,26,25,23,20,93,82,69,30.16,30.04,29.98,6,6,6,7,5,,0.00,8,Snow,290
2013-10-20,29,26,24,23,21,18,86,76,53,30.15,30.07,29.98,6,6,6,14,6,,0.00,6,Snow,67
2013-10-21,29,26,23,19,16,10,80,64,30,30.11,29.98,29.83,6,6,6,7,2,,0.00,,,218
2013-10-22,27,24,21,21,16,12,80,66,42,29.83,29.74,29.68,6,6,2,12,4,,0.00,6,Snow,14
2013-10-23,29,25,21,14,10,5,63,51,25,29.77,29.69,29.65,6,6,6,9,5,,0.00,1,,236
2013-10-24,29,24,19,21,14,8,74,58,36,29.90,29.84,29.77,17,6,6,7,3,,0.00,6,Snow,229
2013-10-25,30,26,21,21,17,11,74,65,37,29.81,29.70,29.56,6,6,6,12,5,,0.00,5,,144
2013-10-26,28,26,23,19,18,15,80,70,48,29.55,29.48,29.44,19,6,6,10,3,,0.00,5,Snow,147
2013-10-27,26,22,19,14,11,5,68,58,32,29.65,29.53,29.47,6,6,6,7,4,,0.00,2,,215
2013-10-28,28,24,21,21,15,10,74,61,37,29.81,29.74,29.65,6,6,6,12,2,,0.00,7,Snow,173
2013-10-29,30,29,28,21,18,12,74,61,34,29.81,29.72,29.62,6,6,6,25,18,40,0.00,4,Snow,73
2013-10-30,26,24,21,16,13,9,74,57,32,29.63,29.55,29.50,19,7,6,22,13,31,0.00,3,,63
2013-10-31,26,22,19,14,12,9,80,64,39,29.65,29.60,29.53,19,7,3,7,3,,0.00,3,,230